Location: Arthez
(43.0833°N, 0.2500°W)
Time: 13:56:49
(UTC+00:00)

NOSS 3-1 (A) - Pass Details

Date: 11 December 2023
Orbit: 665 x 1546 km, 63.4° (Epoch: 18 February)

Event Time Altitude Azimuth Distance (km) Brightness Sun altitude
Exits shadow 05:31:18 14° 339° (NNW) 2,321 5.2 -19.5°
Maximum altitude 05:31:54 14° 345° (NNW) 2,337 5.2 -19.4°
Drops below altitude 10° 05:35:15 10° 17° (NNE) 2,800 5.9 -18.8°
Sets 05:39:41 0° 41° (NE) 3,973 7.0 -18.0°
